Dewpoint
49 50 49 49 50 50 50 50 50 50 50 50 50 50 51 50 50 50 50 50 50 50 50 50 50 50 50 50 51 51 50 43 41 37 34 29 41 51 52 54 56 56 55 36 30 23 20 22 23 28 25 20 20 23 27 28 23 26 21 19 18 18 17 19 18 18 19 18 19 20 24 23 24 34 45 45 45 53 52 53 58 58 58 59 62 62 64 65
49 49 49 49 50 50 50 50 50 50 50 51 51 50 51 51 51 49 50 49 50 50 51 51 50 50 50 49 49 51 46 41 38 37 35 38 47 50 53 57 56 56 50 30 31 29 20 19 25 27 23 18 26 18 25 24 22 22 22 19 17 18 19 21 20 20 21 20 21 21 24 23 23 43 41 34 33 36 37 52 57 57 59 63 64 64 64 65
49 49 49 49 50 50 50 50 51 51 50 51 51 51 50 50 49 50 49 50 50 51 51 51 50 50 51 50 50 50 43 38 31 22 33 55 57 54 53 55 56 53 33 33 34 32 29 27 27 26 25 20 24 20 24 21 21 19 20 18 17 18 19 20 21 21 22 23 22 22 29 24 26 38 39 34 32 30 30 41 56 55 57 63 64 64 64 65
50 50 51 51 50 50 50 50 50 50 50 50 50 50 50 50 50 50 50 51 51 51 51 51 50 49 51 50 51 47 40 37 4 23 36 55 59 58 57 57 55 49 39 37 36 35 33 30 27 26 26 22 23 25 22 21 18 17 17 17 18 18 18 20 23 22 23 24 23 23 29 28 31 30 30 34 36 34 31 36 48 55 57 63 64 64 64 64
48 49 49 49 49 50 50 51 51 51 50 50 50 50 50 50 50 50 50 50 50 51 51 51 50 49 49 50 50 42 39 0 18 39 41 58 58 59 58 58 57 45 42 39 34 34 31 28 25 26 24 21 27 26 21 21 21 18 16 16 17 18 17 19 23 22 23 26 23 27 26 24 31 37 26 37 35 38 40 41 48 53 58 63 64 64 64 64
49 49 49 50 50 50 50 50 50 50 49 50 49 49 50 50 50 50 50 50 50 51 50 50 50 48 48 50 46 41 20 6 24 28 52 50 49 50 51 54 55 47 38 31 29 26 19 18 23 22 24 22 24 19 20 24 21 16 16 16 16 18 17 19 21 24 24 25 25 24 26 29 34 34 29 36 37 39 45 47 51 56 60 63 64 64 64 64
48 48 49 49 49 50 50 50 49 49 49 50 50 51 50 50 50 50 49 49 49 49 50 49 48 49 49 49 42 37 24 16 33 31 51 51 47 45 45 51 57 38 33 24 24 17 18 17 21 22 25 24 21 25 25 27 26 23 16 18 17 18 18 19 19 21 24 24 25 25 28 26 29 28 28 28 32 29 41 51 55 57 60 63 63 64 64 64
48 48 49 49 49 49 49 49 49 49 50 50 50 50 50 50 49 50 50 50 49 49 49 49 48 48 49 43 36 34 31 24 26 34 46 47 37 37 39 44 41 35 29 26 24 15 17 15 19 22 22 18 19 25 26 24 25 23 22 21 19 17 18 18 18 20 22 24 24 25 25 25 28 26 27 27 29 27 39 47 55 57 59 62 63 63 63 63
48 48 49 49 49 49 49 49 49 49 49 49 49 50 49 50 50 50 50 50 50 50 48 48 48 49 48 41 36 25 20 26 35 40 33 32 34 34 28 26 34 32 30 21 23 17 15 13 15 17 14 14 19 15 18 23 17 24 24 25 25 24 24 24 20 18 21 24 25 24 24 24 26 26 25 26 28 27 30 39 50 56 58 60 62 63 63 63
48 48 48 48 48 48 48 48 49 49 49 49 49 49 50 50 50 50 50 50 51 49 50 48 48 48 43 39 30 19 21 28 38 37 33 35 36 34 31 29 30 29 28 26 18 15 13 13 13 16 16 16 18 15 21 24 21 20 22 24 24 24 24 24 19 18 18 21 24 23 23 24 24 26 24 37 31 28 27 29 49 55 56 58 60 62 63 63
47 48 48 48 48 48 48 48 48 48 48 49 49 49 50 50 50 50 51 51 51 50 49 48 47 48 42 40 24 20 22 34 38 35 36 37 36 34 33 33 31 29 26 22 18 16 15 16 17 17 17 16 15 15 20 23 19 17 21 23 24 24 24 23 22 21 19 18 20 23 22 23 22 23 22 28 42 38 27 27 42 54 54 57 59 61 62 63
47 47 47 48 48 48 48 48 48 48 49 49 49 50 50 51 51 51 51 51 51 49 48 47 48 47 44 41 33 27 33 36 36 36 38 38 36 36 35 34 33 31 27 26 25 20 16 15 15 14 13 17 13 16 14 19 17 18 21 19 21 23 22 23 22 21 19 17 18 20 19 18 18 18 21 25 35 42 38 27 27 53 54 56 58 60 61 61
48 47 47 47 47 47 47 47 48 48 49 49 49 50 51 51 51 52 52 51 51 49 48 48 48 48 41 33 36 38 38 37 37 39 40 38 37 37 36 36 34 33 30 28 25 20 16 16 15 15 14 16 15 12 18 18 17 22 22 21 21 20 20 21 22 20 18 18 18 18 15 16 17 18 19 36 37 44 36 33 42 50 54 55 57 58 59 60
47 47 47 47 47 47 47 47 48 48 48 49 50 50 51 51 52 52 52 51 51 49 48 49 48 45 41 35 36 37 38 39 41 43 40 41 37 35 33 32 35 33 31 29 27 24 19 15 15 15 18 14 13 16 15 17 23 19 19 22 19 18 16 20 23 21 19 18 18 18 15 15 16 18 20 36 41 37 33 36 51 54 55 55 56 57 58 59
47 46 47 47 47 47 47 47 47 48 48 49 50 50 51 51 52 52 53 52 50 50 48 49 47 43 38 37 39 40 49 48 43 40 40 40 37 35 32 30 28 27 22 22 20 23 19 16 16 15 13 20 18 15 13 17 21 24 16 15 19 17 14 19 23 20 18 18 17 17 15 15 16 18 19 25 36 39 33 37 53 54 54 55 55 56 57 58
47 47 46 46 46 46 46 47 48 48 49 50 50 50 51 51 52 52 52 52 51 50 47 46 46 40 35 32 32 43 40 34 33 35 37 40 37 34 34 31 30 29 24 23 22 22 20 17 16 16 15 16 15 13 14 14 15 24 17 18 17 19 16 17 19 19 18 17 16 16 14 16 16 19 22 22 29 38 34 33 50 55 56 56 55 56 56 58
47 47 47 46 46 46 46 47 48 48 49 49 50 50 50 51 51 51 52 52 51 50 44 41 45 42 31 33 36 33 33 34 35 33 32 37 37 34 32 26 24 16 16 16 25 17 18 16 19 17 17 14 14 16 12 13 14 16 23 19 21 18 18 16 18 19 16 15 14 15 15 15 18 20 24 27 31 36 32 34 44 54 55 55 55 56 56 57
46 47 47 47 46 46 46 47 48 48 49 49 50 49 48 49 50 50 48 49 49 48 46 45 41 37 32 33 28 28 33 34 33 33 33 34 37 35 32 30 28 21 15 15 16 15 18 15 16 15 16 17 16 16 11 4 9 14 17 19 21 23 22 18 16 17 17 15 14 14 14 15 16 20 22 28 34 32 29 30 36 47 53 54 55 55 55 56
47 47 46 46 46 46 46 47 48 48 49 49 49 48 48 49 42 43 43 42 34 30 26 28 31 24 14 17 29 33 34 34 34 33 31 30 36 35 33 32 21 17 13 13 14 16 16 16 18 16 13 14 13 14 12 11 14 14 16 21 23 21 21 20 21 21 19 15 12 13 13 13 16 19 22 25 32 29 27 29 34 40 47 52 53 54 55 56
47 47 47 46 46 46 47 47 48 49 49 48 45 43 39 36 33 32 38 37 33 29 28 28 34 33 33 32 31 33 34 34 30 30 31 31 34 19 21 21 17 15 13 15 13 15 19 14 13 14 13 14 14 14 14 15 14 13 13 16 14 16 16 20 21 21 20 19 15 13 14 13 16 18 21 23 25 29 27 27 30 34 41 45 51 54 55 55
47 47 46 46 46 47 47 47 48 49 49 46 43 38 34 35 30 30 35 35 36 35 33 33 32 32 31 32 33 32 31 31 32 31 30 40 28 18 16 15 14 16 16 14 14 15 14 13 15 15 15 14 14 15 18 14 13 12 11 12 11 12 13 17 18 19 20 21 19 20 19 18 17 19 21 22 25 25 26 27 28 32 38 42 43 46 54 56
47 47 46 46 46 47 47 48 48 49 49 42 40 37 38 38 37 38 35 33 35 35 34 33 34 33 34 33 34 34 33 30 28 28 30 26 19 16 16 14 14 14 15 14 19 17 14 12 11 13 14 15 16 15 15 14 13 14 13 13 13 11 12 14 17 18 19 20 20 20 19 19 21 20 20 21 23 25 26 27 27 31 38 43 45 45 47 54
46 46 46 45 46 47 47 48 49 48 41 41 39 39 37 39 40 40 37 34 34 35 33 33 32 33 33 35 34 33 29 29 25 27 28 28 19 17 17 14 17 14 13 13 15 16 13 12 12 11 13 12 12 15 14 14 16 15 15 14 12 12 12 11 18 18 18 22 18 17 17 19 22 22 21 21 21 23 32 34 34 34 35 43 45 47 50 52
46 46 46 46 46 46 48 48 47 42 40 41 41 40 41 41 41 39 36 31 30 33 32 32 32 32 32 28 31 32 28 28 28 26 32 25 23 21 16 15 15 14 13 12 12 12 12 12 12 12 11 11 10 11 12 15 13 17 13 12 12 12 12 12 13 16 16 14 17 18 19 18 20 19 19 21 22 21 22 32 34 35 39 42 47 49 51 52
46 47 46 46 47 47 47 48 39 40 42 40 40 43 43 44 43 40 35 27 25 29 34 30 33 32 31 34 34 29 30 31 29 29 31 25 23 18 16 17 16 14 14 13 12 10 10 12 12 11 11 12 12 11 11 12 13 16 15 12 12 12 12 12 13 13 15 15 15 20 16 15 17 18 17 18 22 20 22 25 28 30 34 38 42 46 50 53
46 47 47 47 47 47 48 39 37 42 41 39 39 42 45 45 43 40 31 23 19 21 24 22 31 23 29 23 30 28 28 24 27 29 32 26 30 21 23 16 16 14 14 14 12 14 12 16 12 12 12 12 12 11 12 12 12 13 12 14 13 12 12 12 11 12 14 9 15 20 15 14 19 19 18 18 19 19 20 24 26 28 31 35 40 42 42 43
47 47 47 48 48 48 41 36 40 41 36 38 41 44 45 45 44 38 26 15 9 20 22 23 25 26 25 27 32 28 24 22 26 29 27 29 26 25 19 19 17 17 15 21 16 12 15 14 13 14 13 12 8 8 8 11 12 11 14 14 13 12 12 11 11 11 12 20 16 15 13 12 14 15 19 20 21 19 19 20 21 25 28 32 38 42 42 45
47 48 48 48 48 47 44 44 43 40 39 41 45 45 45 45 40 34 20 3 5 22 25 25 26 29 30 31 33 30 29 30 26 26 24 29 26 22 19 17 17 15 14 14 12 14 15 12 12 12 13 10 9 11 11 12 11 11 13 13 12 12 12 12 11 11 11 12 8 11 15 12 15 17 17 20 17 17 19 19 18 19 23 28 32 40 43 45
47 47 47 48 48 48 45 44 42 39 42 44 45 45 46 41 35 24 15 5 18 25 29 29 33 31 32 33 34 31 30 29 25 27 29 29 26 20 19 17 18 16 15 13 13 13 13 12 12 11 9 9 10 8 8 11 9 10 12 12 14 13 12 12 11 11 13 12 10 9 12 10 12 20 16 19 16 16 17 19 19 19 19 23 28 32 41 47
47 47 48 48 47 42 43 45 43 43 44 45 45 45 42 37 30 20 9 7 26 22 31 32 30 29 33 33 33 33 31 31 30 30 29 29 27 29 26 20 19 22 21 22 13 12 13 29 24 12 10 11 10 10 8 7 7 11 10 9 8 10 12 17 15 12 13 11 11 11 10 11 9 14 15 15 18 17 18 19 19 20 20 20 26 29 34 46
47 48 48 48 43 41 40 38 41 44 45 45 45 40 37 29 20 7 11 18 27 27 31 31 30 33 32 33 32 35 31 30 30 30 27 29 26 32 28 24 25 23 23 22 22 22 18 18 18 17 20 16 13 13 13 12 12 12 9 9 9 9 16 12 13 15 8 8 11 12 12 11 8 13 16 16 19 21 19 18 18 18 18 20 23 28 32 43
47 48 48 47 45 43 38 39 42 45 45 45 41 35 26 15 20 17 15 27 23 25 27 29 32 33 34 34 33 33 30 30 32 29 26 27 26 25 25 21 21 18 19 20 19 20 19 19 20 18 32 14 13 12 11 12 11 10 10 11 8 5 10 4 9 7 8 8 10 10 11 10 9 10 20 17 16 16 17 17 18 19 18 19 18 26 33 42
47 48 48 47 48 43 43 43 45 45 44 42 36 29 19 9 13 19 21 24 23 28 28 34 33 34 35 33 30 30 31 26 30 31 30 30 27 26 27 25 24 22 19 20 18 17 19 19 18 19 19 21 14 13 12 10 10 9 8 10 8 3 3 0 6 7 10 11 11 10 12 8 9 11 13 12 13 13 13 16 18 17 18 19 18 25 32 41
47 47 43 45 47 46 46 48 45 45 43 40 31 28 18 16 16 37 26 26 25 32 34 33 34 35 34 31 31 31 24 26 29 28 28 27 27 26 27 28 25 23 20 17 18 13 14 16 18 14 15 17 15 15 14 11 10 9 7 7 11 9 6 0 9 4 5 8 10 10 9 12 7 13 14 13 13 12 12 13 13 16 15 17 16 19 30 39
46 43 42 42 44 46 47 47 44 46 39 34 28 21 18 15 20 23 26 26 30 34 33 35 33 34 31 29 31 30 27 26 31 29 28 27 25 26 26 26 28 25 24 21 23 19 18 18 20 16 17 15 14 15 15 12 11 9 7 7 9 9 11 6 11 12 12 10 9 10 11 15 8 21 20 16 13 12 15 14 18 15 16 17 17 19 26 38
44 41 42 41 45 46 45 47 44 41 38 33 24 22 20 20 23 29 28 32 33 31 32 34 35 31 30 28 28 28 33 27 28 29 26 27 27 26 28 27 27 25 23 21 21 19 17 15 16 17 16 13 13 16 15 13 11 14 9 9 7 9 9 8 11 16 15 13 8 11 14 13 14 10 11 18 17 13 14 15 15 17 18 19 21 22 25 36
41 42 40 42 43 45 47 46 45 39 36 30 25 21 24 28 29 31 36 31 32 33 34 29 27 27 28 27 27 26 29 32 30 28 27 27 26 27 27 27 28 26 25 24 19 19 14 13 15 16 13 14 12 14 13 13 13 18 10 11 19 17 11 12 7 8 6 7 9 15 10 10 6 7 14 10 16 17 17 17 17 21 20 19 21 23 26 34
40 40 44 44 44 45 46 44 41 37 32 29 26 34 29 28 33 32 35 33 32 34 32 30 30 31 29 28 28 28 31 30 29 29 28 25 25 28 27 27 28 27 26 25 21 22 16 13 15 15 15 15 28 12 14 17 12 12 16 31 15 10 12 15 8 5 2 6 7 14 17 12 9 9 18 9 11 13 15 17 17 15 15 18 20 21 24 31
40 38 37 42 44 46 45 43 39 35 27 26 22 28 32 32 34 33 34 34 33 34 31 29 28 31 31 29 30 31 32 29 31 30 29 28 23 28 29 25 24 27 27 25 23 23 25 14 18 20 26 29 25 23 17 18 20 12 13 20 27 24 20 18 12 17 10 4 10 12 16 15 16 12 18 15 13 12 12 13 15 17 18 19 20 22 23 28
36 34 35 41 44 46 45 43 38 35 30 25 27 26 30 31 33 35 36 34 31 31 28 28 34 32 33 32 32 31 33 32 31 32 30 29 26 35 27 28 27 26 27 25 24 27 23 24 12 18 20 24 17 23 20 18 18 17 16 19 23 22 27 22 22 19 12 10 11 10 9 16 22 22 15 14 17 16 15 15 15 17 19 20 20 22 25 26
37 34 36 42 45 46 44 38 34 32 31 32 31 29 30 31 34 35 36 37 34 37 33 31 32 31 33 33 32 35 33 33 33 32 31 29 26 24 33 31 29 27 27 26 24 28 20 23 18 20 20 18 18 23 22 16 16 18 18 16 18 18 17 17 15 22 18 15 13 11 12 18 24 29 26 21 19 20 19 20 22 20 20 21 22 23 23 27
32 28 33 41 45 45 41 34 33 35 32 30 29 30 31 36 34 34 34 36 35 33 38 34 34 35 34 33 33 34 34 32 32 32 33 30 29 28 32 35 31 26 27 27 25 30 29 28 22 19 20 19 18 20 24 23 27 29 23 20 19 20 24 22 15 17 21 20 22 20 13 16 24 34 30 29 29 27 26 25 27 30 32 32 30 25 23 24
33 32 38 42 45 43 36 28 33 31 29 31 34 32 34 34 34 34 33 34 31 35 33 34 35 32 33 33 34 34 34 31 31 31 33 31 29 32 31 36 34 30 31 35 32 36 34 28 21 22 22 23 25 25 24 23 29 26 27 29 25 21 22 22 21 24 20 21 17 14 12 17 24 36 35 31 28 30 32 36 37 38 39 38 37 34 26 24
34 34 35 41 44 42 32 25 28 27 28 29 29 30 32 32 33 31 30 31 30 32 32 31 33 35 31 35 35 33 34 29 33 33 32 34 31 34 34 34 37 36 32 33 28 37 27 28 22 15 15 16 20 24 27 29 28 27 25 28 27 27 26 25 28 28 19 23 21 17 12 18 26 32 28 27 26 26 27 35 39 39 40 40 39 37 33 26
34 35 35 38 38 39 31 31 28 23 26 26 27 27 28 29 33 32 31 31 31 30 28 28 31 35 35 35 34 35 35 33 30 35 35 34 33 34 34 35 36 37 35 35 35 36 32 29 23 15 10 6 6 7 12 20 25 26 30 29 30 27 26 27 20 22 18 23 24 18 18 22 25 25 25 26 26 26 27 31 37 40 39 40 40 40 37 30
30 20 29 27 31 34 34 31 29 26 24 27 26 26 27 27 29 30 31 30 32 31 30 30 30 35 33 31 26 26 27 31 33 32 36 34 34 34 35 34 36 36 36 36 38 35 31 33 28 25 21 16 14 15 18 29 25 24 26 26 25 29 29 25 24 23 20 22 22 23 23 23 23 24 25 27 27 26 26 28 33 37 39 40 42 43 42 36
30 27 24 22 27 28 26 26 26 26 25 29 25 28 27 27 27 28 29 25 29 29 27 32 32 26 26 28 27 27 28 29 33 34 34 35 34 34 33 33 34 37 39 35 38 36 34 31 30 28 27 26 25 24 25 27 25 26 24 26 26 26 27 24 21 20 26 21 20 24 26 24 24 25 25 26 26 26 27 28 30 34 39 40 42 46 47 41
21 24 28 27 22 20 23 21 28 28 28 29 28 30 27 26 26 25 27 29 30 29 27 26 27 27 27 27 28 26 27 28 30 31 33 37 32 32 31 33 34 39 38 36 36 33 32 27 28 30 29 29 29 29 28 27 27 27 26 25 25 26 26 24 22 23 26 20 20 25 27 26 25 25 26 26 26 25 26 27 28 35 40 41 42 46 48 44
28 29 29 32 24 24 23 26 30 29 27 26 27 28 26 25 25 26 27 28 29 28 28 23 24 26 27 28 28 27 28 27 28 30 30 32 31 31 30 32 34 38 38 38 35 35 32 29 30 31 28 29 31 31 31 29 29 29 28 28 26 25 25 24 23 26 27 25 26 27 28 28 28 27 26 27 27 28 28 31 38 40 39 39 41 47 49 45
31 32 30 34 33 30 28 27 27 26 25 30 22 23 26 25 25 27 29 29 25 27 29 26 26 27 28 28 28 27 28 29 29 28 29 31 30 30 32 33 33 38 41 34 38 38 32 25 33 30 28 28 31 31 33 34 30 28 29 29 27 26 26 27 26 28 29 27 29 29 28 28 30 30 30 32 35 35 37 36 35 35 38 40 42 48 50 45
39 37 37 34 29 28 30 26 26 26 22 24 23 25 27 26 26 29 29 31 29 27 28 27 28 28 29 28 28 27 29 29 30 29 30 30 28 31 32 34 35 35 35 33 35 36 33 29 31 30 26 27 31 31 29 30 29 28 28 28 27 26 25 26 26 29 25 23 25 27 27 27 29 34 42 43 39 35 32 31 34 36 39 41 42 47 51 49
39 39 39 35 29 32 25 25 26 22 17 24 28 27 26 27 29 30 27 29 31 30 30 30 29 29 28 27 26 28 29 29 29 29 29 29 30 31 30 30 32 34 35 35 37 35 34 28 24 24 25 24 29 32 31 27 25 23 24 29 31 31 29 30 31 33 32 28 25 24 25 32 38 44 43 44 44 44 41 36 34 36 40 41 42 46 51 52